Regional Weather Roundup
Issued by NWS New Orleans/Baton Rouge, LA

Home | Current Version | Previous Version | Text Only | Print | Product List | Glossary On
Versions: 1 2 3 4 5 6 7 8 9 10 11 12 13 14 15 16 17 18 19 20 21 22 23 24 25 26 27 28
000
ASUS44 KLIX 290411
RWRLIX
NEW ORLEANS REGIONAL WEATHER ROUNDUP
NATIONAL WEATHER SERVICE NEW ORLEANS LA
1100 PM CDT THU APR 28 2016

NOTE: "FAIR" INDICATES FEW OR NO CLOUDS BELOW 12,000 FEET WITH NO
      SIGNIFICANT WEATHER AND/OR OBSTRUCTIONS TO VISIBILITY.
      SKY/WX - SKY CONDITION AND SIGNIFICANT WEATHER.
      TMP - AIR TEMPERATURE.     DP    - DEWPOINT TEMPERATURE.
      RH  - RELATIVE HUMIDITY.   PRES  - PRESSURE.
      HI  - HEAT INDEX.          WCI   - WIND CHILL INDEX.

*  THESE STATIONS ARE NOT NWS OR FAA STATIONS AND ARE NOT UNDER
   NWS QUALITY CONTROL.

LAZ038-040-048-061>063-065>067-069-290500-
SOUTHEAST LOUISIANA

CITY           SKY/WX    TMP DP  RH WIND       PRES   REMARKS
N.O. AUDUBON   NOT AVBL
N.O. INTL ARPT MOCLDY    75  70  84 SE5       29.95S
N.O. LAKEFRONT PTCLDY    70  69  97 S7        29.95F
N.O. DOWNTOWN*   N/A     75  69  81 VRB6      29.95F
RESERVE*         N/A     74  71  91 SE3       29.94S
SLIDELL        CLEAR     71  70  96 CALM      29.95S
BATON ROUGE    PTCLDY    74  71  91 E6        29.92F
BOOTHVILLE     CLOUDY    74  68  81 SE6       29.95F
BELLE CHASSE   CLOUDY    74  69  85 SE6       29.94F
BOGALUSA*        N/A     74  69  82 S3        29.97S
GALLIANO*      CLEAR     76  71  83 SE5       29.94S
NEW ROADS*     MOCLDY    74  72  95 SE5       29.92S
GONZALES*      CLOUDY    76  75  97 S6        29.93R
HAMMOND*       PTCLDY    73  70  88 SE3       29.94F
HOUMA*         CLEAR     75  72  91 SE7       29.93S
PORT FOURCHON* CLEAR     77  72  83 SE13G20   29.94F

$$

MSZ070-080>082-290500-
SOUTHERN MISSISSIPPI

CITY           SKY/WX    TMP DP  RH WIND       PRES   REMARKS
MCCOMB         CLOUDY    74  73  97 S9        29.95S
GULFPORT       CLEAR     71  68  90 CALM      29.95F
BILOXI         CLEAR     70  70 100 NE3       29.95F
PASCAGOULA     PTCLDY    65  65 100 CALM      29.96F FOG

$$

COASTAL OBSERVATIONS
LAKE AND NEARSHORE STATIONS

STATION/POSITION TIME  TEMP    WIND        PRES    WAVE
                       AIR SEA DIR/SP/G            HT/PER
                 (UTC) (F)     (DEG/KT/KT) (MB)    (FT/S)
WAVELAND YACHT   0300   75 75              1014.1
GRAND ISLE       0300   76 78              1013.9
SOUTHWEST PASS   0300          140/  6/  8   N/A
NEW CANAL        0300   75 74              1013.5
SHELL BEACH      0300   74 76              1014.3

OFFSHORE STATIONS

STATION/POSITION TIME  TEMP    WIND        PRES    WAVE
                       AIR SEA DIR/SP/G            HT/PER
                 (UTC) (F)     (DEG/KT/KT) (MB)    (FT/S)

$$





USA.gov is the U.S. government's official web portal to all federal, state and local government web resources and services.